| time (UTC) | temp F | wind direction | speed MPH | gust MPH | rain 1hr in | rain 24hr in | rain mn in | humidity % | barometer mb |
| 20260503221529 | 49 | 303 | 7.0 | 15.0 | 0.00 | 0.01 | 0.00 | 42 | 1005.2 |
| 20260503220027 | 50 | 266 | 6.0 | 18.0 | 0.00 | 0.02 | 0.00 | 42 | 1005.3 |
| 20260503214527 | 50 | 305 | 2.0 | 16.0 | 0.00 | 0.02 | 0.00 | 44 | 1005.2 |
| 20260503213023 | 50 | 304 | 9.0 | 18.0 | 0.00 | 0.02 | 0.00 | 43 | 1005.2 |
| 20260503211524 | 50 | 359 | 2.0 | 13.0 | 0.00 | 0.02 | 0.00 | 45 | 1005.0 |
| 20260503210023 | 49 | 359 | 6.0 | 16.0 | 0.00 | 0.02 | 0.00 | 43 | 1005.1 |
| 20260503204523 | 49 | 318 | 7.0 | 14.0 | 0.00 | 0.02 | 0.00 | 43 | 1005.0 |
| 20260503203023 | 49 | 290 | 3.0 | 13.0 | 0.00 | 0.02 | 0.00 | 50 | 1005.2 |
| 20260503201520 | 49 | 359 | 10.0 | 23.0 | 0.00 | 0.02 | 0.00 | 42 | 1005.1 |
| 20260503200020 | 50 | 305 | 3.0 | 14.0 | 0.00 | 0.07 | 0.00 | 48 | 1005.2 |
| 20260503194521 | 50 | 298 | 3.0 | 12.0 | 0.00 | 0.07 | 0.00 | 44 | 1005.5 |
| 20260503193017 | 50 | 310 | 5.0 | 11.0 | 0.00 | 0.07 | 0.00 | 44 | 1005.6 |
| 20260503191528 | 48 | 310 | 13.0 | 18.0 | 0.00 | 0.07 | 0.00 | 46 | 1005.9 |
| 20260503190013 | 49 | 307 | 11.0 | 21.0 | 0.00 | 0.12 | 0.00 | 46 | 1005.9 |
| 20260503184512 | 49 | 310 | 9.0 | 19.0 | 0.00 | 0.12 | 0.00 | 46 | 1006.0 |
| 20260503183007 | 48 | 322 | 11.0 | 22.0 | 0.00 | 0.12 | 0.00 | 47 | 1006.1 |
| 20260503181507 | 46 | 289 | 7.0 | 12.0 | 0.00 | 0.12 | 0.00 | 51 | 1006.4 |
| 20260503180005 | 46 | 308 | 12.0 | 23.0 | 0.00 | 0.13 | 0.00 | 51 | 1006.4 |
| 20260503174503 | 47 | 359 | 6.0 | 12.0 | 0.00 | 0.13 | 0.00 | 54 | 1006.4 |
| 20260503173002 | 46 | 326 | 9.0 | 15.0 | 0.00 | 0.13 | 0.00 | 59 | 1006.6 |
| 20260503171600 | 46 | 299 | 9.0 | 14.0 | 0.00 | 0.13 | 0.00 | 54 | 1006.8 |
| 20260503171500 | 46 | 359 | 8.0 | 13.0 | 0.00 | 0.13 | 0.00 | 55 | 1006.8 |
| 20260503170112 | 45 | 304 | 9.0 | 15.0 | 0.00 | 0.19 | 0.00 | 53 | 1006.9 |
| 20260503160114 | 46 | 305 | 8.0 | 16.0 | 0.00 | 0.19 | 0.00 | 52 | 1007.3 |
| 20260503081558 | 37 | 359 | 0.0 | 0.0 | 0.00 | 0.25 | 0.00 | 93 | 1008.8 |
| 20260503071556 | 37 | 235 | 0.0 | 0.0 | 0.00 | 0.28 | 0.00 | 93 | 1008.7 |
| 20260503060108 | 37 | 283 | 0.0 | 4.0 | 0.00 | 0.28 | 0.00 | 94 | 1009.0 |
| 20260503054546 | 38 | 359 | 0.0 | 4.0 | 0.00 | 0.28 | 0.00 | 94 | 1009.1 |
| 20260503053042 | 38 | 262 | 0.0 | 4.0 | 0.00 | 0.28 | 0.00 | 94 | 1009.2 |
| 20260503051540 | 38 | 314 | 0.0 | 1.0 | 0.00 | 0.28 | 0.00 | 94 | 1009.3 |
| 20260503050039 | 38 | 322 | 0.0 | 0.0 | 0.00 | 0.28 | 0.00 | 94 | 1009.4 |
| 20260503044538 | 38 | 224 | 0.0 | 0.0 | 0.00 | 0.28 | 0.00 | 94 | 1009.6 |
| 20260503043046 | 38 | 218 | 0.0 | 2.0 | 0.00 | 0.28 | 0.00 | 94 | 1009.6 |
| 20260503041535 | 38 | 343 | 0.0 | 1.0 | 0.00 | 0.28 | 0.00 | 94 | 1009.7 |
| 20260503040036 | 38 | 253 | 0.0 | 5.0 | 0.00 | 0.28 | 0.28 | 94 | 1009.7 |
| 20260503034533 | 38 | 359 | 0.0 | 0.0 | 0.00 | 0.28 | 0.28 | 94 | 1009.8 |
| 20260503033035 | 38 | 316 | 0.0 | 2.0 | 0.00 | 0.28 | 0.28 | 94 | 1009.9 |
| 20260503031531 | 38 | 359 | 0.0 | 0.0 | 0.00 | 0.28 | 0.28 | 94 | 1010.0 |
| 20260503030030 | 38 | 332 | 0.0 | 0.0 | 0.00 | 0.28 | 0.28 | 94 | 1009.9 |
| 20260503024530 | 38 | 341 | 0.0 | 0.0 | 0.00 | 0.28 | 0.28 | 94 | 1010.0 |
| 20260503023028 | 38 | 322 | 0.0 | 0.0 | 0.00 | 0.28 | 0.28 | 94 | 1010.2 |
| 20260503021540 | 38 | 359 | 0.0 | 0.0 | 0.00 | 0.28 | 0.28 | 94 | 1010.2 |
| 20260503020027 | 38 | 227 | 0.0 | 0.0 | 0.01 | 0.28 | 0.28 | 94 | 1010.4 |
| 20260503014526 | 38 | 179 | 0.0 | 1.0 | 0.01 | 0.28 | 0.28 | 94 | 1010.5 |
| 20260503013024 | 39 | 186 | 0.0 | 2.0 | 0.01 | 0.28 | 0.28 | 94 | 1010.4 |
| 20260503011523 | 39 | 193 | 0.0 | 0.0 | 0.01 | 0.28 | 0.28 | 94 | 1010.4 |
| 20260503010022 | 39 | 190 | 0.0 | 0.0 | 0.00 | 0.27 | 0.27 | 94 | 1010.3 |
| 20260503004519 | 39 | 191 | 0.0 | 0.0 | 0.00 | 0.27 | 0.27 | 93 | 1010.1 |
| 20260503003018 | 40 | 174 | 0.0 | 0.0 | 0.00 | 0.27 | 0.27 | 93 | 1009.9 |
| 20260503001519 | 40 | 261 | 0.0 | 0.0 | 0.00 | 0.27 | 0.27 | 93 | 1009.8 |
| 20260503000017 | 40 | 289 | 5.0 | 10.0 | 0.00 | 0.27 | 0.27 | 92 | 1009.7 |
| 20260502234516 | 40 | 276 | 0.0 | 0.0 | 0.00 | 0.27 | 0.27 | 93 | 1009.6 |
| 20260502233016 | 40 | 276 | 0.0 | 0.0 | 0.00 | 0.27 | 0.27 | 93 | 1009.5 |
| 20260502231522 | 41 | 276 | 0.0 | 1.0 | 0.00 | 0.27 | 0.27 | 93 | 1009.4 |
| 20260502230016 | 41 | 212 | 0.0 | 0.0 | 0.00 | 0.27 | 0.27 | 93 | 1009.2 |
| 20260502224525 | 41 | 237 | 0.0 | 2.0 | 0.00 | 0.27 | 0.27 | 93 | 1009.1 |
| 20260502223015 | 41 | 359 | 0.0 | 1.0 | 0.00 | 0.27 | 0.27 | 93 | 1009.1 |